Location: Jackson Park
(37.2862°N, 79.9123°W)
Time: 14:34:22
(UTC+00:00)

Vanguard 1 Rocket - Pass Details

Date: 16 May 2026
Orbit: 656 x 4211 km, 34.3° (Epoch: 8 June)

Event Time Altitude Azimuth Distance (km) Brightness Sun altitude
Rises 05:21:14 0° 273° (W) 7,931 12.2 -33.6°
Reaches altitude 10° 05:33:02 10° 249° (WSW) 7,348 11.7 -33.5°
Enters shadow 05:40:02 12° 233° (SW) 7,229 11.6 -33.3°
Maximum altitude 05:40:22 12° 232° (SW) 7,228 - -33.3°
Drops below altitude 10° 05:47:45 10° 215° (SW) 7,289 - -33.1°
Sets 05:59:49 0° 189° (S) 7,759 - -32.7°
